Wind_Speed
5 5 6 6 7 7 6 4 4 5 5 3 1 1 1 3 5 5 5 6 5 6 6 6 5 7 8 3 2 6 6 5 5 4 5 4 4 5 4 5 5 4 5 6 7 9 10 11 12 13 14 14 15 16 16 18 18 18 20 21 21 21 21 21 21 21 22 22 21 21 21 21 21 21 22 23 23 23 22 22 21 21 22 21 19
6 7 7 7 8 8 6 5 5 5 4 2 2 2 3 4 5 6 6 6 7 6 6 7 6 7 9 5 3 6 6 6 5 4 4 3 4 6 4 4 5 5 5 6 6 7 8 10 11 10 12 14 15 17 17 19 20 20 21 21 21 22 22 23 23 23 22 22 21 21 21 20 20 20 22 22 23 22 21 21 21 21 22 21 19
7 8 6 7 7 7 6 6 5 5 4 2 2 3 4 5 5 6 6 7 7 7 7 8 7 7 8 6 6 7 5 6 4 2 4 3 3 4 4 4 4 5 5 5 5 4 5 8 8 6 8 10 13 16 18 19 20 21 21 21 21 22 22 23 24 24 23 23 22 21 20 19 19 19 20 21 22 22 21 21 22 21 21 20 19
9 8 6 7 7 6 5 6 5 5 4 3 3 4 4 5 6 6 6 7 7 7 8 8 7 7 7 8 9 9 7 7 5 2 3 4 3 3 3 4 4 4 5 4 5 3 5 7 6 5 7 9 10 12 15 17 19 20 21 22 22 22 23 23 24 24 23 23 22 21 20 20 19 19 20 21 21 21 21 21 22 21 20 20 20
8 8 7 7 7 7 6 5 6 6 5 4 4 4 4 5 5 6 6 7 7 7 8 7 8 7 8 10 9 9 8 7 5 3 3 4 5 4 3 4 4 4 3 3 3 4 5 5 4 5 8 10 12 12 13 15 17 18 20 22 23 23 23 23 25 24 24 24 23 23 22 21 21 20 20 20 20 20 20 20 20 20 19 20 20
9 8 7 6 6 7 6 5 7 8 6 5 4 4 5 4 5 5 6 7 7 8 8 7 8 7 7 10 9 10 9 5 4 3 3 4 4 3 3 5 5 4 2 2 3 3 2 2 3 5 7 9 12 13 14 15 16 16 17 19 21 23 23 23 25 26 25 25 24 23 23 22 22 21 21 20 20 20 20 19 19 18 18 19 18
9 8 7 7 6 6 6 7 9 8 6 5 5 4 5 5 5 6 6 7 7 8 8 7 9 7 8 9 10 13 11 6 5 3 4 5 4 2 3 4 5 4 4 2 2 1 1 1 2 4 6 7 9 10 12 13 14 15 16 17 19 21 21 22 23 25 25 25 24 23 23 23 23 22 21 21 20 20 20 19 18 17 17 17 17
9 8 8 7 6 6 7 9 11 9 6 6 5 5 5 5 6 6 7 7 8 8 8 8 8 8 8 8 9 12 9 5 4 3 5 7 6 4 4 5 6 5 5 3 2 1 1 1 2 5 6 6 6 7 8 10 12 14 15 16 18 19 19 20 21 23 24 25 26 25 24 24 24 23 22 21 20 20 20 19 18 17 17 17 16
9 9 8 7 7 7 6 9 10 9 7 7 5 6 6 6 7 7 7 7 8 8 8 8 9 9 8 8 9 9 8 7 7 5 6 6 6 6 5 6 6 6 6 4 1 1 2 2 3 5 6 6 6 6 6 8 10 12 14 15 17 18 18 18 19 20 22 24 27 27 26 26 25 25 24 23 21 19 19 19 19 18 17 16 15
11 10 9 9 8 8 8 9 10 9 9 7 6 7 7 7 7 7 7 8 8 9 8 8 9 9 8 9 9 8 9 9 8 7 6 7 8 6 5 6 7 7 7 5 5 3 3 4 4 4 3 4 5 5 5 6 7 10 12 13 13 15 16 16 17 18 20 23 25 27 27 26 25 25 24 23 22 20 19 19 19 18 18 17 16
12 11 10 10 9 8 9 10 10 9 9 8 7 7 8 8 7 7 8 8 9 8 8 8 9 9 8 9 8 8 10 10 9 7 6 8 8 7 6 7 8 8 7 7 7 5 4 5 4 3 2 2 3 4 4 4 5 7 9 10 11 13 13 14 16 17 19 21 22 24 25 25 25 24 24 23 22 21 21 20 19 19 19 18 17
13 13 11 11 10 9 10 10 9 9 9 8 7 7 8 8 7 8 7 8 8 7 7 8 9 8 8 9 7 7 10 10 9 9 9 9 10 9 8 9 9 8 9 7 7 6 5 4 5 3 2 2 3 4 4 3 2 4 6 7 9 10 11 12 14 16 18 19 20 22 23 24 23 23 23 23 23 22 22 21 20 20 19 18 17
13 13 12 12 11 11 11 11 10 9 10 9 8 9 9 8 7 8 7 6 7 6 7 8 8 7 7 7 6 6 9 10 8 9 11 9 10 12 11 11 11 10 9 8 8 9 7 6 5 3 1 3 3 4 4 4 3 2 4 5 7 8 9 10 12 13 16 17 19 20 21 22 22 23 22 22 23 23 22 21 20 20 19 18 17
13 13 12 12 11 11 11 12 11 12 12 11 10 10 10 8 7 7 6 6 6 6 7 8 7 7 7 6 5 6 7 9 8 9 10 9 8 12 13 13 13 11 9 8 9 10 8 6 5 3 2 3 3 3 4 4 3 2 1 2 5 6 7 8 9 10 12 14 15 17 19 21 21 21 21 22 22 22 21 20 20 20 19 18 17
14 13 12 11 11 11 10 11 12 13 13 12 11 9 9 8 7 7 6 6 6 6 6 8 8 7 7 5 5 6 5 8 9 7 8 8 8 10 12 13 14 12 9 7 6 7 5 5 4 2 3 4 5 5 4 3 3 3 2 1 2 5 6 7 8 9 10 12 13 14 16 17 18 19 20 21 21 21 20 19 19 20 19 18 17
14 13 12 11 11 11 10 9 11 12 11 12 11 9 9 8 7 7 6 6 6 6 6 7 7 6 6 5 5 5 5 8 9 6 6 7 8 8 11 13 14 13 12 9 6 6 7 5 4 3 3 4 5 6 4 3 3 4 4 3 3 5 6 8 8 8 9 11 12 12 13 14 15 17 18 20 20 20 19 19 19 19 18 17 17
14 13 12 11 12 12 11 10 10 11 11 10 10 9 9 9 8 8 7 7 7 6 6 6 6 7 7 6 4 4 6 8 7 5 5 7 9 9 10 13 15 14 14 13 9 7 8 5 4 3 4 4 6 6 4 3 4 5 5 4 3 4 6 8 9 9 9 10 11 12 13 13 14 15 16 17 18 18 18 19 19 18 17 16 16
15 15 14 12 13 13 13 12 10 11 11 10 10 9 10 9 9 9 7 7 7 6 6 5 6 7 6 5 5 4 7 8 7 6 6 7 9 9 11 14 15 14 13 13 11 9 8 5 4 4 4 5 6 6 3 3 4 5 5 5 4 1 4 7 9 10 9 10 12 12 12 12 13 14 14 15 16 17 17 18 18 17 16 16 16
15 15 15 14 15 15 14 13 10 9 10 10 10 9 9 9 9 9 8 8 9 7 6 5 6 7 6 6 6 5 6 7 7 7 7 8 9 11 13 14 14 14 13 14 13 11 10 8 5 4 6 6 6 6 3 4 5 6 7 7 5 2 1 4 8 10 10 10 11 12 12 11 12 12 13 13 14 15 15 16 16 15 15 15 15
15 14 15 15 16 15 14 13 11 10 10 10 9 9 9 9 10 11 10 10 9 7 7 7 6 7 7 8 6 5 6 6 6 6 6 8 9 10 11 13 14 14 15 16 14 12 12 10 7 5 6 6 6 6 4 4 5 7 9 7 5 3 0 3 5 8 9 9 11 12 12 11 12 12 12 13 13 13 14 14 14 13 14 14 15
14 14 14 14 14 14 14 13 12 11 11 10 9 9 9 10 11 11 10 9 8 8 9 8 6 6 7 8 6 5 4 4 6 6 5 6 8 9 9 11 11 11 14 16 14 13 12 11 9 7 6 6 6 5 4 4 4 7 10 8 5 3 1 3 4 6 7 8 10 12 12 12 12 12 13 13 12 12 12 12 12 12 13 13 14
12 13 14 14 14 14 13 13 12 11 12 11 10 10 10 11 11 10 10 10 9 9 9 8 8 7 6 6 6 5 4 3 4 4 4 4 6 8 8 8 8 9 12 14 14 13 12 11 9 7 6 5 6 5 4 3 4 6 9 8 6 5 3 3 4 6 6 7 10 11 12 12 12 12 13 13 12 12 12 11 12 12 13 13 13
11 11 12 13 13 13 13 12 12 12 12 12 11 10 10 10 9 9 11 11 10 10 10 9 9 9 7 7 6 6 5 4 4 3 3 3 5 7 7 7 8 8 10 12 13 13 13 11 9 8 7 5 5 5 4 4 5 7 8 8 8 7 6 5 4 5 6 7 8 10 10 11 11 12 13 13 13 12 12 11 12 12 13 12 12
11 11 11 11 12 13 13 13 12 13 12 12 12 11 11 10 9 10 10 11 11 11 11 11 10 10 9 8 7 6 5 5 4 4 3 3 4 6 7 7 6 6 7 11 12 11 12 12 10 9 7 5 4 5 5 3 5 7 8 9 9 7 7 6 5 5 6 7 7 8 9 10 10 11 12 13 12 12 12 12 12 12 13 13 13
12 11 11 10 11 13 14 13 13 14 14 14 13 13 13 12 11 11 11 11 11 12 12 12 11 11 10 9 8 7 6 5 4 4 3 2 3 4 6 6 6 5 6 9 9 8 10 11 10 8 7 6 4 5 5 3 4 7 7 9 9 7 7 7 7 6 6 6 6 7 8 8 9 10 11 12 12 12 12 12 12 12 13 13 13
11 11 11 11 11 12 13 14 14 15 16 16 15 15 15 14 13 13 12 12 11 12 12 12 12 12 12 10 9 8 7 6 5 5 4 3 3 4 4 5 5 5 6 8 8 7 7 8 9 8 6 5 4 4 4 3 4 6 6 8 8 7 7 7 6 6 5 4 4 5 6 7 7 9 9 10 11 11 11 11 12 12 12 12 13
10 11 11 12 12 12 13 13 13 15 17 17 16 15 16 17 15 15 15 14 13 13 13 13 13 12 12 12 11 10 9 7 6 6 5 4 4 4 4 5 5 4 4 7 8 7 6 4 7 8 6 5 5 4 3 2 3 4 5 6 6 6 7 7 6 5 4 4 3 3 3 4 5 6 7 8 9 10 10 10 10 11 11 12 12
11 11 11 12 12 13 13 13 13 14 15 16 16 15 16 16 15 16 17 15 14 14 13 13 13 13 13 13 12 11 10 9 8 7 6 5 4 4 4 4 4 4 4 5 4 5 5 2 5 7 5 4 4 4 3 2 2 3 4 4 4 4 5 5 6 6 5 4 3 2 2 3 3 4 4 6 7 8 8 9 9 10 11 11 11
13 11 11 11 13 14 14 13 13 14 14 15 15 15 17 16 16 18 18 16 15 15 14 14 14 13 13 13 13 13 11 10 9 8 8 7 6 5 5 5 4 4 5 5 4 3 3 3 6 7 5 4 4 3 3 3 2 2 2 3 3 3 3 3 4 4 5 4 4 3 3 3 3 4 5 6 7 7 8 8 9 10 10 10 11
17 16 14 13 13 14 15 14 14 14 14 15 14 15 16 16 17 18 19 18 17 16 16 15 15 14 14 13 13 13 12 12 11 10 9 9 8 7 6 6 6 5 5 5 5 3 3 6 8 7 5 4 3 3 2 3 3 2 1 2 2 2 2 2 2 2 2 3 3 3 3 3 3 3 4 5 7 7 8 8 9 9 9 10 10
19 19 19 17 15 13 14 14 14 14 15 15 15 16 16 16 16 17 17 17 18 18 18 16 15 15 14 14 14 14 14 13 12 12 11 10 9 9 8 8 7 7 6 6 6 4 3 5 8 7 4 3 2 1 2 2 2 2 1 1 0 2 2 1 2 2 1 0 1 2 2 2 3 3 3 4 5 6 6 7 7 7 7 8 9
20 19 19 18 16 14 13 13 13 14 15 15 15 15 16 16 16 15 15 16 18 19 18 17 16 15 15 15 15 15 14 14 14 13 13 12 11 11 10 10 9 9 8 8 8 7 4 4 6 6 4 3 3 2 2 2 1 1 1 2 2 2 2 1 2 3 3 3 1 2 1 1 2 3 4 4 5 5 6 6 6 6 6 6 7
21 20 19 17 16 14 14 14 14 14 15 16 15 15 15 15 15 16 16 17 18 19 18 17 17 16 15 15 16 15 15 15 14 14 14 13 13 13 12 12 11 10 10 9 9 8 6 5 6 6 4 3 3 3 3 2 1 0 1 2 2 2 1 1 3 4 4 4 2 1 1 1 1 3 5 5 4 4 4 4 5 5 5 5 5
21 21 20 17 14 13 14 15 15 15 16 16 15 14 14 14 14 14 14 16 17 18 17 17 17 17 16 16 16 16 15 15 15 15 15 14 14 14 13 13 12 11 11 11 10 9 7 7 6 6 6 4 4 5 4 4 3 1 1 2 2 3 3 3 4 6 5 4 4 2 1 1 1 1 3 4 4 4 3 3 4 4 5 5 6
20 21 20 15 12 13 15 15 14 15 15 15 14 14 14 14 14 13 12 13 15 16 17 17 17 17 17 17 17 16 16 16 16 16 15 15 15 14 14 13 13 12 11 12 12 10 8 8 7 7 7 6 6 6 6 6 4 3 3 3 4 5 6 7 8 8 7 6 6 4 3 2 3 4 4 4 5 5 4 4 5 6 7 7 7
19 20 18 14 12 14 16 15 15 15 15 14 14 14 13 12 13 13 12 12 13 14 15 16 15 15 16 16 16 16 16 16 16 16 15 15 15 14 14 14 13 13 12 12 13 12 10 9 8 7 7 7 7 8 8 8 6 5 5 5 6 7 8 10 10 10 8 8 7 5 4 4 5 6 6 7 7 7 8 8 9 9 10 10 9
17 18 16 14 14 15 15 15 14 14 15 15 14 14 14 13 13 13 12 12 13 13 14 14 14 14 14 15 16 16 15 15 16 15 15 16 15 14 14 13 13 13 12 13 13 13 12 11 10 10 10 9 9 9 10 9 7 7 7 7 8 10 10 11 11 10 9 8 7 6 5 6 6 7 8 9 10 11 12 12 12 12 12 12 12
16 16 14 13 14 15 15 15 14 15 15 15 15 15 14 13 14 14 13 12 13 14 14 14 14 14 14 14 15 15 14 14 14 15 15 15 15 15 15 14 14 13 13 13 14 14 14 13 12 12 12 12 11 11 10 9 8 9 10 10 11 12 12 11 9 10 10 9 8 8 7 7 7 8 10 11 12 13 14 14 14 13 13 14 15
14 15 14 14 14 14 14 14 14 15 15 16 16 17 16 14 14 14 13 13 13 13 14 14 14 15 15 15 16 15 14 15 15 14 15 16 15 15 15 15 15 14 14 14 14 15 16 15 14 14 14 14 13 12 11 10 9 10 11 12 13 13 12 11 9 10 11 11 11 10 9 10 10 10 10 9 10 11 11 12 13 14 15 15 15
12 13 13 13 13 14 14 14 14 15 15 15 16 16 15 14 13 13 13 13 13 13 13 14 14 15 16 17 18 17 17 18 17 15 15 15 15 15 16 16 16 15 15 14 14 16 17 17 15 15 15 15 14 13 13 12 12 12 12 11 12 13 13 12 11 10 11 12 12 11 11 12 13 11 10 9 7 7 6 7 8 10 12 13 13
10 12 13 13 13 13 14 14 14 13 13 14 15 15 14 13 12 13 13 13 13 13 13 13 14 14 15 17 18 18 18 18 17 17 18 18 18 17 16 16 16 16 15 15 15 16 17 18 17 15 16 17 17 16 16 15 14 13 11 11 12 12 13 14 13 12 11 12 13 14 14 14 14 13 12 11 8 7 6 5 5 5 7 8 9
11 12 13 13 13 13 13 13 13 12 13 15 17 17 15 14 14 13 13 12 13 14 14 14 14 14 14 14 15 16 16 16 17 20 21 21 21 20 18 17 16 16 17 18 17 17 18 18 17 16 16 17 18 18 17 15 13 12 12 13 13 13 14 16 16 14 13 13 14 16 17 16 16 17 16 13 10 9 8 6 5 5 6 7 8
11 12 12 13 12 11 11 12 11 12 15 17 17 16 15 15 15 14 13 13 15 16 16 15 14 14 14 15 15 16 15 16 19 21 22 22 22 22 22 21 21 21 21 21 18 17 18 19 18 17 17 17 17 16 15 14 13 13 13 14 14 14 15 18 19 17 15 14 15 17 17 17 18 18 16 15 12 10 9 9 9 9 10 10 10
8 9 9 10 10 9 10 11 11 12 16 17 16 17 16 15 16 15 13 13 16 17 16 15 15 14 14 14 14 13 15 17 20 21 22 22 23 24 24 24 24 24 24 23 22 20 20 20 20 19 18 16 14 14 16 17 17 17 15 15 17 17 18 20 19 17 15 14 16 18 18 16 17 17 16 14 13 11 10 11 12 14 15 15 13
7 7 7 7 8 9 9 11 11 12 16 17 16 17 17 15 15 15 13 13 15 16 17 17 16 15 16 17 14 13 15 19 20 20 21 22 23 24 25 25 25 25 26 26 26 25 24 24 23 21 19 17 16 18 19 19 19 20 18 18 19 19 20 21 18 15 16 15 16 20 20 17 18 18 17 16 15 13 13 13 14 16 17 16 14
6 7 7 8 9 10 11 11 10 12 16 16 16 17 17 16 15 14 13 13 13 15 15 15 16 17 18 19 16 14 15 17 18 19 19 19 21 21 22 23 24 24 26 28 29 29 28 27 26 25 24 23 23 23 23 22 22 24 23 22 21 21 22 21 17 16 19 19 17 19 20 19 20 20 19 18 17 16 17 18 17 16 15 13 13
6 7 8 8 9 10 10 11 11 13 18 19 18 19 19 18 17 15 13 13 13 13 12 12 13 15 15 15 15 15 17 17 19 19 18 17 18 19 20 21 21 22 25 27 28 29 29 29 28 28 28 28 27 26 27 27 26 26 25 24 23 22 21 20 17 18 22 21 19 20 21 21 22 22 22 21 20 20 21 20 18 16 13 11 11
5 6 6 7 8 8 9 10 10 13 19 21 21 23 23 21 19 16 13 13 14 14 13 13 14 14 14 15 15 16 17 18 19 19 18 17 18 18 18 19 20 21 23 25 26 27 29 29 29 29 30 30 28 27 27 28 27 27 25 24 23 23 22 21 21 23 26 25 23 23 24 23 23 23 24 23 22 22 21 18 16 14 12 13 14
5 5 5 5 6 6 8 9 8 10 17 21 20 21 22 21 19 17 14 12 12 12 12 14 16 16 16 17 17 17 17 18 17 17 17 19 19 18 17 18 20 21 22 23 23 24 27 28 29 29 29 28 28 27 28 27 27 27 26 26 26 26 24 23 24 26 28 28 25 24 25 26 24 23 24 24 22 20 18 16 15 14 16 17 17
5 5 4 4 4 4 6 8 9 11 16 19 18 18 18 18 18 18 15 12 11 11 11 12 13 13 14 16 18 18 17 17 18 17 17 18 17 15 15 15 17 20 21 21 21 22 24 27 28 29 29 29 29 29 29 29 28 28 27 27 26 26 25 26 27 26 26 27 25 24 25 26 25 25 26 23 19 16 15 16 17 18 19 19 17
5 6 5 4 4 4 5 7 10 12 15 17 17 17 17 16 16 16 15 13 12 11 11 11 11 11 12 14 16 15 15 16 18 18 19 19 17 15 14 13 14 18 20 19 19 20 21 23 25 27 29 29 29 29 30 29 29 28 27 25 23 24 26 27 27 25 25 25 25 25 27 28 26 26 25 22 18 16 16 18 20 20 19 17 14
Wind_Direction
192 194 202 205 193 180 173 179 188 188 175 154 207 254 318 311 317 329 331 334 338 343 346 339 344 3 4 13 -0 345 340 322 319 310 291 281 274 275 272 265 261 262 262 258 249 244 242 241 245 250 248 244 238 234 231 229 228 228 230 229 228 228 227 226 225 221 221 224 223 223 225 227 228 227 227 228 231 232 231 233 235 236 236 236 237
203 201 204 206 192 179 174 184 190 185 179 192 235 271 304 307 318 321 327 330 334 340 344 347 348 348 346 352 355 343 339 322 318 314 309 300 263 272 288 282 273 274 270 270 262 250 244 236 235 245 250 249 244 239 233 229 230 231 232 231 231 231 229 227 225 223 222 224 225 224 224 225 227 228 228 228 230 232 233 235 236 238 240 240 239
209 202 199 202 192 183 184 188 190 200 199 205 255 276 295 304 311 314 323 325 331 336 336 344 350 348 335 330 337 333 326 320 326 348 322 313 272 270 286 288 277 276 270 268 266 256 248 241 237 245 252 250 246 242 236 233 233 233 233 232 233 233 231 229 227 225 223 223 225 225 225 224 226 229 230 229 228 231 232 234 235 237 241 242 242
202 197 197 197 192 192 196 200 198 212 214 212 263 275 294 308 309 314 324 325 328 328 333 341 342 349 335 319 330 335 335 334 341 358 319 321 325 305 282 287 285 273 270 268 266 252 249 252 250 249 243 239 239 237 233 233 234 234 233 233 233 234 232 230 230 229 227 226 224 223 224 223 224 227 227 228 229 231 232 233 235 236 240 243 242
200 200 199 196 198 199 201 213 213 218 223 228 263 287 303 310 312 318 321 322 328 326 333 339 337 349 338 330 339 339 343 343 334 337 337 338 336 329 277 282 295 279 269 262 254 249 253 255 251 249 241 234 231 231 228 228 231 234 235 235 234 235 234 232 231 229 228 228 224 222 223 222 223 225 225 227 229 231 232 232 234 236 239 242 243
204 205 195 193 208 211 207 217 224 225 227 239 269 292 298 303 312 316 317 320 325 327 333 336 340 349 337 343 349 339 348 351 333 341 343 344 333 315 273 285 304 304 292 260 239 244 248 234 233 242 242 236 232 233 232 229 229 232 233 233 232 233 234 233 233 230 227 226 224 223 224 223 225 226 225 227 228 230 233 232 233 236 238 241 245
205 206 196 193 206 220 220 223 228 228 234 247 262 282 291 299 307 313 318 322 324 328 332 334 341 344 338 348 347 343 357 357 346 356 327 349 7 332 317 316 319 320 313 287 253 271 67 150 208 220 227 227 224 229 234 232 230 228 227 226 227 229 230 231 232 232 229 227 226 225 224 225 226 226 225 226 228 229 231 233 233 233 235 239 243
208 208 203 197 204 221 227 235 234 229 239 256 266 280 288 292 298 310 317 322 327 328 331 334 339 341 340 349 346 348 3 355 348 357 332 353 11 356 353 346 338 333 323 300 242 249 57 83 154 180 202 205 204 214 222 226 226 225 224 223 224 226 226 226 226 228 229 228 226 225 224 228 229 227 226 226 227 228 229 231 232 233 235 238 241
211 212 207 200 209 221 229 241 241 234 242 256 270 277 283 291 297 309 316 322 325 324 328 333 339 342 346 355 353 355 5 358 354 353 348 358 -0 354 359 353 348 339 329 335 348 39 66 78 124 150 175 181 178 188 196 205 213 220 223 223 224 227 225 223 223 225 228 227 226 225 223 227 231 229 227 227 227 227 228 229 230 232 233 236 239
213 214 210 206 213 220 224 236 239 239 247 254 266 273 277 285 292 302 311 320 322 322 326 332 339 343 350 353 353 0 7 9 9 8 6 -0 354 355 3 359 349 337 332 354 20 37 78 93 117 135 151 159 158 167 176 183 196 211 218 220 223 226 226 225 225 225 225 225 226 226 224 225 229 230 227 227 227 228 230 230 231 232 233 235 238
215 216 214 213 218 226 231 238 242 244 251 255 263 271 276 280 286 295 306 318 321 326 329 332 339 343 351 350 350 9 13 16 25 31 25 9 8 12 14 8 357 349 354 7 19 28 64 94 115 122 114 137 146 153 162 171 186 203 210 215 223 226 225 225 226 225 224 223 222 225 225 222 224 227 227 228 230 231 232 233 234 235 235 236 237
217 219 221 222 225 232 238 241 244 249 253 255 262 268 273 278 283 290 301 313 320 328 329 333 339 343 356 353 350 11 15 18 29 38 39 36 35 30 18 14 15 13 13 17 23 33 52 75 103 112 89 105 119 131 141 142 163 201 209 212 220 223 223 223 222 223 223 221 219 221 223 222 220 224 226 227 230 231 232 234 236 238 236 237 238
222 224 229 233 233 235 241 242 242 247 250 250 254 257 264 274 282 291 302 310 319 327 328 335 340 346 359 351 341 357 8 16 29 41 41 41 36 31 26 20 24 26 21 28 37 43 46 47 82 113 71 88 105 113 120 110 102 166 206 211 215 216 220 220 219 221 221 219 220 221 221 222 221 222 225 226 228 230 232 234 236 237 236 237 239
227 229 232 235 236 238 243 245 245 247 250 252 257 262 268 274 275 284 296 302 316 326 330 338 340 346 353 347 349 352 2 18 28 35 32 34 27 23 29 25 27 37 33 32 38 41 39 28 53 102 84 96 114 104 103 92 65 49 142 201 215 219 223 220 215 218 218 217 220 221 220 221 222 223 226 227 227 228 229 232 235 235 235 236 238
233 233 235 235 236 237 240 248 252 252 256 259 261 266 271 271 266 274 288 295 309 322 329 337 335 343 351 351 355 347 358 17 22 30 23 31 35 18 26 32 34 44 45 44 43 43 51 40 41 66 75 93 112 102 89 65 28 7 354 301 234 226 225 220 221 221 217 215 215 216 217 219 223 224 225 226 225 225 225 229 233 234 233 234 237
235 235 234 236 238 237 236 244 253 256 260 264 263 262 264 265 262 264 277 291 303 313 323 332 327 333 346 346 344 343 359 2 5 29 22 28 47 26 23 36 40 43 45 52 56 46 55 56 37 52 72 82 108 110 90 44 12 357 347 318 277 246 230 218 221 223 217 214 211 212 214 216 220 222 222 222 222 223 224 228 231 232 232 233 236
232 233 233 237 242 242 239 242 251 258 260 264 266 261 257 258 259 260 269 285 294 302 314 322 310 317 338 347 354 353 351 346 351 24 20 22 44 35 24 33 41 43 39 43 50 46 50 51 32 54 76 77 100 109 87 49 17 356 344 324 295 248 232 218 214 215 212 211 209 210 211 211 215 218 219 219 219 222 223 226 228 229 230 232 234
233 235 234 236 244 245 243 245 250 257 259 261 264 261 256 256 258 262 266 275 280 288 303 306 295 304 326 342 358 349 338 345 352 358 3 18 33 34 29 29 37 43 33 31 40 42 45 49 45 65 79 85 100 103 86 45 22 1 345 339 335 261 220 212 206 204 204 207 206 206 206 207 210 212 212 213 215 218 219 222 225 227 230 232 234
233 238 239 236 241 244 243 245 246 253 258 260 263 263 261 259 255 255 254 259 267 276 288 289 285 295 310 320 333 338 337 352 355 347 350 5 19 27 26 22 31 41 30 26 34 35 34 38 45 66 77 87 97 95 75 26 21 10 -0 1 353 338 205 198 196 194 197 203 204 202 203 204 204 202 203 205 208 211 215 218 222 225 228 231 232
231 235 239 236 239 242 241 241 242 248 253 257 263 266 263 258 254 256 257 257 261 267 269 271 279 291 303 308 314 324 331 346 357 356 345 345 3 18 20 16 25 36 27 24 33 32 31 33 36 52 66 78 87 87 67 31 24 5 -0 12 14 1 86 177 185 189 193 196 196 197 198 198 197 195 197 200 202 206 211 215 217 220 223 228 229
238 235 236 234 235 239 240 241 244 247 251 254 259 263 264 262 260 261 262 259 258 256 256 262 268 270 288 302 308 310 311 327 347 358 345 335 354 6 10 11 17 28 23 23 32 31 31 34 36 46 57 66 74 73 60 36 25 6 2 15 30 32 86 153 171 183 193 193 192 192 193 193 193 195 197 200 202 206 211 215 218 219 221 225 228
241 240 239 236 233 237 238 242 248 249 249 250 252 259 266 270 270 262 254 250 248 250 252 256 260 255 260 282 290 290 290 298 315 332 335 330 346 357 7 12 15 21 18 22 33 33 32 37 40 47 51 59 63 60 53 40 29 17 10 17 32 46 81 128 162 176 185 187 188 191 192 193 195 199 202 204 207 210 214 219 220 219 220 224 228
230 236 239 238 236 237 237 239 245 245 246 249 252 258 264 271 272 262 254 251 246 247 251 250 255 259 252 253 263 270 278 283 284 294 315 325 344 355 4 15 19 21 15 17 30 34 32 33 41 49 50 55 56 51 51 36 25 24 21 28 35 42 68 100 141 167 177 178 181 189 193 196 200 204 207 209 212 215 218 222 222 221 222 226 228
228 230 233 233 232 233 234 234 238 241 243 248 249 249 251 257 262 260 257 257 251 246 248 248 250 257 256 252 255 258 266 273 274 274 284 314 341 350 356 6 11 13 11 14 23 29 28 29 37 45 50 55 49 48 61 52 23 25 29 36 39 40 56 78 110 149 174 181 181 184 189 197 203 208 212 214 217 220 224 225 225 225 226 229 232
231 231 233 231 228 234 238 235 236 241 242 242 243 244 246 249 255 259 257 255 254 251 249 247 246 250 253 252 253 255 260 264 263 262 262 287 324 335 346 356 353 343 356 14 23 17 13 23 33 39 48 55 45 37 46 56 37 29 30 38 42 46 56 69 88 115 152 176 185 186 189 196 202 207 211 215 218 222 225 226 227 229 231 233 237
235 233 233 229 226 234 244 242 241 246 246 243 245 249 252 252 250 253 255 253 251 250 249 248 247 247 248 249 252 253 254 257 260 258 257 272 301 317 332 345 349 343 339 2 22 17 4 13 24 33 48 51 56 56 41 44 43 30 30 38 41 47 58 70 81 94 115 136 159 175 188 198 203 208 210 213 217 220 223 226 229 231 233 235 238
235 234 232 232 228 229 238 240 241 248 250 248 248 252 258 259 253 249 251 251 249 248 248 247 245 245 245 247 250 251 251 252 255 253 254 265 281 297 316 329 339 346 340 352 8 11 10 4 2 17 38 43 52 68 52 42 45 33 38 41 40 48 57 67 78 83 94 103 120 143 165 190 202 212 215 219 221 222 225 226 228 231 232 234 237
231 235 237 240 236 232 236 240 244 248 251 251 250 251 254 256 254 252 251 250 248 248 247 245 244 242 243 245 246 249 250 249 251 251 250 253 259 271 287 305 319 325 330 346 352 348 2 4 336 351 12 23 30 49 63 64 40 33 43 36 33 50 56 66 78 84 93 102 117 137 162 194 211 219 221 224 227 229 230 229 230 232 232 233 235
228 229 234 241 242 241 240 240 245 248 248 251 252 251 253 253 252 255 255 251 247 245 244 243 242 241 241 243 245 247 248 247 249 250 249 248 250 258 267 271 280 297 311 325 326 315 327 334 328 332 346 359 357 11 50 60 43 41 35 11 11 44 48 57 76 88 97 105 118 137 161 193 212 224 228 229 231 235 233 232 236 238 237 239 241
236 232 231 234 240 247 246 240 243 248 247 248 250 251 253 255 255 256 255 252 247 244 243 241 239 240 240 239 241 243 245 246 248 249 249 249 249 252 258 259 261 273 287 296 303 294 284 313 328 329 328 341 347 353 17 30 40 47 8 2 23 31 25 18 23 61 101 112 123 133 143 161 177 191 210 221 224 230 233 233 236 240 242 242 242
242 240 239 240 240 245 250 248 247 249 250 251 252 252 252 254 256 255 255 254 250 245 242 241 239 238 239 238 237 239 241 243 246 248 247 247 250 252 254 255 255 263 270 270 278 284 274 296 317 325 319 315 318 318 328 351 29 32 349 0 42 341 345 351 342 332 314 296 146 150 146 156 163 161 165 184 199 207 213 218 222 228 235 236 236
239 239 241 244 243 241 245 251 252 252 253 252 251 253 252 252 251 250 249 250 250 247 241 237 236 237 237 237 236 237 239 241 244 247 247 247 250 251 252 253 253 257 260 255 259 268 266 273 296 315 321 305 281 267 282 297 348 20 314 260 278 311 305 290 313 308 298 296 251 205 231 220 183 181 173 165 172 181 185 192 202 210 216 222 225
236 237 238 239 242 245 247 249 250 252 252 249 247 247 248 251 251 250 249 247 247 247 242 235 232 233 234 236 237 237 238 240 242 245 247 247 249 251 251 250 251 252 253 250 251 256 248 244 272 298 311 299 265 249 248 246 247 39 239 258 301 313 278 274 293 289 286 289 271 231 271 295 197 189 188 179 175 180 186 190 195 203 211 216 221
236 237 237 235 238 246 250 251 251 251 252 253 253 246 243 247 249 250 253 252 250 247 242 237 233 232 233 237 239 239 239 241 241 242 245 247 248 251 251 249 249 248 244 242 244 246 242 238 252 275 290 290 260 248 250 244 238 239 237 258 283 268 236 217 247 267 271 263 252 232 234 265 264 236 210 204 205 206 210 217 217 220 228 232 236
234 233 233 231 234 242 245 248 249 249 250 254 257 251 245 245 247 248 250 254 252 246 242 239 236 234 236 239 243 242 240 239 240 241 243 246 249 251 251 250 249 247 242 240 240 237 237 237 237 249 267 274 261 249 248 244 239 238 236 239 246 250 247 237 243 257 256 241 238 236 230 255 278 275 251 233 232 229 233 249 256 254 250 245 246
229 229 230 226 227 239 244 244 246 249 250 251 255 256 253 249 250 250 250 253 253 248 244 241 240 239 240 242 245 244 241 238 237 239 241 243 246 249 249 248 247 246 242 240 240 237 234 236 235 232 235 248 257 251 247 246 240 235 236 238 246 255 259 257 256 257 245 231 232 237 237 256 276 275 258 241 239 240 242 251 261 263 260 253 250
225 226 230 227 227 237 244 245 246 249 251 252 256 260 258 253 253 251 248 251 253 251 249 245 243 244 244 246 245 241 240 241 240 240 242 244 245 246 246 244 243 244 239 238 240 237 234 235 236 237 234 239 250 252 252 252 244 240 242 242 250 260 266 265 257 252 245 235 236 243 245 255 271 276 264 250 246 247 248 251 256 258 258 255 252
226 226 228 230 233 238 241 244 247 248 249 251 254 259 258 255 256 255 251 251 252 252 252 249 246 244 243 245 248 244 239 240 243 245 245 245 244 244 243 240 239 240 238 236 236 237 239 237 234 239 243 246 250 252 253 252 244 244 249 249 252 259 267 269 254 241 240 239 241 248 248 253 270 285 282 266 255 254 255 254 254 253 254 255 256
227 228 228 231 236 239 241 245 248 248 248 249 255 260 260 253 252 255 253 251 253 254 254 251 249 246 243 241 243 244 241 239 240 243 245 246 245 243 241 239 238 240 239 238 236 236 240 239 236 237 242 247 250 250 251 249 241 243 251 254 257 258 260 263 254 238 235 237 241 244 244 248 260 278 288 277 260 256 257 256 254 253 254 256 259
226 230 233 234 236 239 241 244 246 247 249 252 259 265 264 257 252 253 254 254 255 255 254 253 251 251 252 250 248 247 247 247 243 238 240 244 244 244 243 240 236 235 236 236 236 237 238 238 237 233 236 243 245 245 248 245 238 244 253 256 258 258 257 254 251 244 236 231 232 238 243 245 249 264 279 274 259 253 254 257 258 257 259 261 262
227 230 231 230 232 236 240 242 243 246 251 253 254 255 256 254 249 249 250 252 255 254 252 253 253 251 254 259 261 256 252 252 251 245 243 243 243 243 244 243 239 237 238 237 235 235 235 235 233 228 231 239 242 245 247 244 242 249 255 250 245 248 253 254 252 251 245 235 231 235 240 240 243 254 264 263 255 249 250 263 274 274 271 269 269
225 228 230 231 232 236 240 243 243 244 246 246 247 248 249 249 249 249 248 248 252 254 253 253 254 254 254 258 265 265 261 258 254 248 245 245 246 245 244 245 243 242 243 242 239 237 237 236 233 227 229 235 239 244 248 248 250 252 246 242 240 239 244 249 250 249 249 246 240 237 235 236 242 247 249 250 249 246 248 257 270 277 278 277 277
223 227 231 231 233 235 239 242 243 246 245 244 246 250 250 248 248 248 249 252 254 255 256 254 253 255 257 256 257 261 263 259 253 249 245 242 244 246 247 246 244 241 241 242 240 238 239 241 239 233 233 235 235 238 240 242 251 255 246 241 240 236 236 245 252 254 252 250 248 244 237 234 238 240 239 241 244 244 248 255 259 263 266 269 273
217 223 229 231 231 233 237 236 232 240 247 247 246 249 250 249 247 246 251 256 257 257 256 254 249 246 249 254 256 258 261 260 257 255 250 245 244 246 248 247 245 242 241 242 242 239 239 243 244 242 240 239 238 239 241 244 254 262 255 243 241 239 240 248 254 256 256 251 246 247 245 235 234 236 234 237 241 243 248 256 261 264 263 262 265
213 220 229 234 234 230 232 233 229 236 249 251 247 247 248 249 249 248 252 258 259 259 258 258 257 252 249 250 250 248 253 258 258 256 255 254 251 248 249 250 247 244 242 243 243 243 243 246 247 247 247 244 240 240 242 246 255 262 260 252 248 244 245 251 252 251 257 254 242 245 248 240 235 236 236 239 243 245 247 251 257 263 266 263 258
231 237 244 245 245 241 237 237 236 241 246 245 244 245 245 246 248 248 251 257 261 262 260 259 264 264 259 254 250 247 249 254 257 257 257 258 256 253 251 252 251 248 245 243 244 244 244 247 248 249 250 249 246 246 249 250 254 260 262 259 256 253 253 256 253 248 256 257 245 244 246 240 237 237 235 238 243 245 247 249 252 257 261 258 248
244 250 250 246 248 249 245 241 240 246 249 246 245 249 249 247 247 245 247 253 260 264 264 260 262 266 265 262 259 257 256 255 257 258 258 258 259 258 257 257 255 252 249 246 245 245 245 245 246 247 249 251 251 252 256 257 258 262 263 259 258 258 258 257 250 245 252 253 245 243 243 238 237 236 235 237 240 243 247 248 247 246 243 233 223
243 246 248 246 246 246 247 245 242 250 258 256 252 254 255 253 252 253 253 254 255 257 260 259 259 264 267 269 269 267 266 265 263 263 262 260 259 258 260 261 260 257 254 251 248 247 246 245 245 247 249 251 250 249 253 257 258 260 258 254 252 250 249 250 247 247 252 251 243 243 245 242 238 236 237 238 239 241 242 240 235 225 212 201 194
241 241 238 241 242 235 235 240 234 243 259 263 260 258 257 255 255 257 258 258 257 258 259 258 257 257 256 257 259 261 266 270 269 265 263 263 263 261 259 260 261 259 257 256 252 248 246 246 246 247 248 250 249 248 250 253 254 255 254 252 253 250 244 240 239 245 252 252 245 245 247 243 240 240 237 232 232 233 229 223 214 199 185 180 175
233 236 234 236 243 229 221 226 223 228 250 264 267 264 261 256 254 255 257 258 260 263 264 263 261 260 256 253 251 250 254 261 264 262 262 263 263 261 257 256 260 260 258 257 256 252 248 248 249 249 248 250 251 250 251 253 255 256 254 252 256 257 250 242 241 243 247 250 251 250 246 240 238 239 232 222 216 214 209 203 196 186 176 170 166
225 232 235 236 239 232 222 227 227 228 244 262 270 268 268 266 262 260 260 262 264 266 267 267 265 263 260 258 257 249 241 247 255 256 255 255 256 259 259 255 256 260 260 258 257 255 253 251 251 251 251 251 253 253 254 254 256 258 255 251 253 255 251 248 249 244 239 246 255 252 243 238 236 235 228 216 200 187 182 185 185 178 171 170 172
Height
1586 1587 1587 1587 1587 1588 1589 1590 1590 1590 1590 1590 1591 1590 1590 1590 1590 1590 1590 1589 1589 1589 1588 1587 1586 1586 1586 1585 1585 1584 1583 1582 1581 1580 1580 1579 1578 1578 1578 1578 1578 1578 1578 1578 1579 1579 1579 1580 1579 1580 1581 1582 1582 1583 1584 1585 1586 1586 1587 1589 1590 1591 1592 1593 1594 1595 1596 1598 1599 1600 1601 1601 1602 1603 1603 1604 1605 1606 1607 1608 1609 1610 1611 1612 1613
1587 1587 1587 1587 1587 1588 1589 1590 1590 1590 1590 1591 1591 1590 1590 1591 1590 1590 1589 1589 1589 1588 1588 1587 1586 1584 1583 1584 1584 1584 1583 1582 1581 1579 1578 1578 1578 1578 1577 1577 1578 1578 1577 1577 1577 1577 1578 1577 1577 1578 1578 1579 1580 1581 1582 1583 1583 1584 1585 1586 1587 1589 1590 1591 1592 1592 1594 1596 1597 1598 1599 1600 1600 1601 1602 1603 1604 1605 1606 1607 1607 1608 1610 1611 1612
1587 1586 1587 1587 1588 1588 1589 1589 1590 1590 1590 1591 1591 1591 1590 1590 1590 1590 1589 1588 1588 1588 1587 1586 1586 1585 1583 1582 1582 1583 1582 1581 1579 1578 1578 1577 1578 1577 1576 1577 1577 1576 1576 1576 1576 1576 1576 1575 1575 1576 1576 1576 1577 1578 1580 1581 1581 1582 1583 1584 1585 1586 1588 1589 1590 1590 1592 1593 1595 1596 1597 1598 1599 1599 1600 1601 1602 1603 1605 1606 1606 1607 1608 1609 1610
1586 1586 1587 1587 1588 1588 1589 1589 1590 1590 1590 1591 1591 1590 1590 1590 1589 1589 1588 1588 1588 1587 1587 1586 1586 1586 1584 1582 1581 1581 1580 1578 1577 1577 1577 1577 1577 1576 1576 1575 1575 1575 1574 1574 1574 1574 1573 1573 1573 1575 1574 1574 1575 1576 1577 1578 1579 1580 1581 1582 1583 1584 1585 1586 1588 1589 1590 1592 1593 1594 1595 1596 1597 1598 1599 1600 1601 1601 1603 1604 1605 1606 1607 1608 1609
1585 1586 1586 1587 1587 1588 1589 1589 1589 1590 1590 1590 1590 1590 1590 1590 1589 1589 1588 1588 1588 1587 1586 1586 1586 1585 1584 1582 1581 1580 1579 1578 1578 1577 1577 1577 1576 1576 1575 1574 1573 1573 1571 1571 1571 1571 1570 1570 1572 1572 1572 1572 1573 1574 1574 1575 1576 1577 1578 1579 1581 1582 1583 1584 1585 1587 1588 1590 1591 1592 1593 1595 1595 1596 1597 1598 1599 1600 1601 1603 1604 1605 1605 1606 1607
1585 1585 1586 1587 1588 1588 1589 1589 1589 1589 1589 1589 1590 1590 1590 1589 1589 1589 1588 1588 1587 1587 1586 1586 1585 1584 1584 1582 1581 1579 1578 1578 1577 1577 1577 1577 1576 1576 1575 1573 1571 1570 1569 1568 1568 1568 1567 1568 1569 1569 1569 1570 1571 1572 1572 1573 1574 1575 1576 1577 1578 1580 1581 1582 1583 1585 1586 1588 1589 1590 1591 1593 1593 1594 1595 1596 1597 1598 1600 1601 1602 1603 1604 1604 1605
1584 1585 1586 1587 1588 1588 1589 1589 1588 1589 1589 1589 1589 1590 1589 1589 1589 1588 1588 1588 1587 1586 1586 1585 1584 1584 1583 1581 1580 1578 1577 1577 1577 1577 1577 1576 1575 1575 1574 1572 1569 1568 1567 1566 1566 1565 1565 1566 1566 1566 1567 1567 1568 1570 1570 1571 1572 1573 1574 1575 1576 1577 1579 1580 1581 1583 1584 1586 1587 1588 1590 1591 1591 1592 1593 1594 1595 1597 1598 1599 1600 1601 1602 1603 1604
1584 1585 1586 1586 1588 1589 1589 1588 1588 1588 1589 1589 1589 1589 1589 1588 1588 1587 1587 1587 1586 1586 1585 1584 1584 1583 1582 1581 1580 1578 1578 1577 1576 1576 1576 1575 1574 1573 1572 1570 1568 1566 1565 1565 1565 1565 1565 1565 1565 1565 1565 1566 1567 1568 1569 1570 1571 1571 1572 1573 1574 1575 1576 1577 1579 1581 1582 1583 1585 1586 1587 1589 1590 1591 1592 1592 1593 1595 1596 1597 1598 1599 1600 1601 1602
1583 1584 1585 1586 1588 1588 1589 1588 1587 1588 1589 1589 1589 1589 1588 1588 1587 1587 1586 1586 1585 1585 1584 1584 1583 1583 1582 1580 1579 1578 1578 1577 1575 1575 1574 1573 1573 1572 1570 1569 1567 1566 1565 1565 1565 1565 1564 1564 1564 1565 1565 1566 1566 1567 1567 1568 1569 1570 1571 1572 1573 1574 1575 1576 1577 1578 1579 1581 1582 1583 1585 1586 1588 1589 1590 1591 1592 1593 1594 1595 1596 1597 1598 1599 1600
1583 1584 1585 1586 1587 1587 1588 1587 1587 1588 1588 1588 1589 1588 1588 1587 1587 1586 1585 1585 1584 1584 1583 1583 1582 1582 1581 1580 1578 1577 1576 1575 1574 1574 1573 1572 1572 1570 1569 1568 1566 1565 1564 1564 1563 1563 1563 1563 1564 1564 1565 1565 1566 1566 1566 1567 1568 1568 1569 1570 1571 1572 1573 1574 1575 1576 1577 1578 1579 1581 1582 1584 1585 1587 1588 1589 1590 1591 1592 1593 1594 1595 1596 1597 1598
1583 1584 1584 1585 1586 1587 1587 1586 1586 1587 1587 1588 1588 1588 1587 1587 1586 1586 1585 1584 1583 1583 1583 1582 1582 1581 1581 1580 1578 1577 1576 1575 1574 1573 1572 1572 1571 1569 1568 1567 1565 1564 1563 1562 1562 1562 1562 1563 1563 1564 1564 1565 1565 1565 1566 1566 1567 1567 1568 1569 1570 1571 1571 1572 1573 1574 1574 1575 1577 1578 1580 1581 1583 1585 1586 1587 1588 1589 1590 1591 1592 1593 1594 1595 1596
1582 1583 1584 1585 1586 1586 1586 1586 1586 1586 1587 1587 1588 1588 1587 1586 1586 1585 1584 1584 1583 1583 1582 1582 1581 1581 1581 1579 1577 1577 1577 1576 1574 1573 1572 1571 1570 1568 1567 1566 1565 1564 1563 1562 1562 1562 1562 1562 1563 1564 1564 1564 1564 1565 1565 1566 1566 1567 1567 1568 1569 1569 1570 1570 1571 1572 1572 1573 1574 1576 1577 1579 1581 1582 1583 1585 1586 1587 1588 1589 1590 1591 1592 1593 1594
1581 1582 1583 1584 1585 1585 1585 1585 1586 1586 1586 1586 1587 1586 1585 1585 1585 1584 1584 1584 1584 1583 1582 1581 1581 1580 1580 1579 1577 1577 1577 1576 1574 1573 1572 1571 1570 1568 1567 1566 1565 1564 1563 1563 1563 1562 1562 1562 1563 1564 1564 1564 1564 1564 1565 1565 1566 1566 1566 1567 1567 1568 1569 1569 1569 1570 1571 1571 1572 1574 1575 1577 1578 1580 1581 1582 1583 1585 1586 1587 1588 1590 1591 1592 1592
1580 1581 1583 1583 1584 1584 1585 1584 1585 1585 1585 1585 1585 1585 1584 1584 1585 1584 1584 1584 1583 1583 1582 1581 1580 1580 1579 1578 1577 1577 1576 1576 1574 1573 1572 1571 1569 1569 1567 1566 1566 1565 1565 1565 1564 1564 1563 1563 1563 1564 1564 1564 1564 1564 1564 1565 1565 1565 1566 1566 1566 1567 1567 1567 1568 1568 1569 1569 1570 1572 1573 1575 1576 1577 1579 1580 1581 1583 1584 1585 1586 1588 1589 1590 1590
1579 1581 1582 1582 1583 1583 1584 1584 1584 1584 1584 1585 1585 1584 1584 1584 1584 1584 1584 1584 1583 1583 1581 1580 1580 1579 1579 1578 1577 1576 1576 1576 1575 1574 1573 1571 1570 1570 1568 1567 1567 1566 1566 1566 1566 1566 1566 1565 1565 1565 1564 1565 1565 1564 1565 1565 1565 1565 1565 1565 1565 1565 1565 1566 1566 1567 1567 1568 1569 1570 1571 1573 1574 1575 1576 1578 1579 1580 1582 1583 1584 1586 1587 1588 1588
1578 1580 1581 1581 1582 1582 1583 1583 1583 1583 1583 1584 1584 1584 1584 1584 1584 1584 1584 1583 1583 1582 1581 1580 1579 1578 1578 1578 1577 1577 1576 1576 1575 1574 1573 1571 1571 1571 1569 1568 1567 1567 1566 1566 1567 1567 1566 1566 1566 1565 1565 1565 1565 1565 1565 1565 1565 1564 1564 1564 1564 1564 1564 1564 1565 1565 1566 1567 1568 1569 1570 1571 1572 1573 1574 1575 1577 1578 1579 1581 1582 1583 1584 1586 1586
1577 1578 1579 1580 1581 1581 1581 1582 1582 1582 1582 1583 1583 1583 1584 1583 1583 1583 1583 1583 1583 1582 1581 1580 1578 1578 1577 1577 1577 1577 1577 1576 1575 1574 1574 1572 1572 1571 1570 1569 1567 1567 1567 1567 1567 1567 1567 1567 1567 1565 1565 1565 1565 1565 1565 1565 1565 1564 1564 1563 1563 1563 1563 1563 1563 1564 1565 1566 1567 1568 1569 1570 1570 1571 1572 1574 1575 1576 1578 1579 1580 1582 1583 1584 1585
1576 1577 1578 1579 1580 1580 1580 1580 1581 1581 1581 1582 1582 1582 1582 1583 1583 1582 1583 1582 1582 1581 1581 1579 1578 1577 1577 1577 1577 1577 1577 1576 1575 1574 1574 1573 1572 1571 1570 1570 1568 1567 1568 1568 1567 1567 1567 1567 1567 1566 1565 1565 1565 1565 1565 1565 1565 1564 1563 1562 1561 1561 1561 1562 1562 1563 1564 1565 1565 1566 1568 1568 1569 1570 1571 1572 1573 1575 1576 1577 1579 1580 1581 1582 1583
1575 1575 1576 1577 1578 1578 1578 1579 1580 1580 1581 1580 1581 1581 1581 1582 1582 1581 1582 1581 1580 1580 1580 1579 1577 1577 1576 1576 1577 1577 1576 1575 1575 1575 1574 1573 1572 1571 1570 1570 1570 1569 1569 1569 1567 1567 1567 1566 1566 1565 1565 1565 1565 1565 1566 1565 1564 1564 1563 1561 1560 1560 1560 1560 1561 1562 1563 1564 1565 1566 1567 1567 1568 1569 1570 1571 1572 1573 1575 1576 1577 1578 1579 1580 1581
1573 1574 1574 1575 1576 1576 1577 1577 1578 1579 1580 1580 1580 1580 1580 1580 1580 1580 1580 1580 1579 1579 1579 1579 1578 1577 1576 1576 1576 1576 1576 1575 1575 1575 1574 1573 1573 1572 1571 1571 1570 1570 1569 1569 1568 1567 1567 1566 1566 1565 1565 1565 1565 1565 1566 1565 1564 1563 1562 1561 1560 1559 1559 1559 1560 1561 1562 1563 1564 1565 1566 1567 1567 1568 1569 1570 1571 1572 1573 1574 1575 1576 1577 1578 1579
1570 1571 1572 1573 1574 1575 1575 1576 1577 1578 1578 1579 1579 1579 1579 1579 1578 1578 1578 1578 1579 1579 1578 1578 1578 1577 1576 1576 1576 1576 1576 1576 1575 1575 1575 1574 1573 1573 1572 1571 1570 1570 1570 1569 1568 1567 1567 1566 1566 1565 1565 1566 1565 1566 1566 1565 1564 1563 1562 1561 1560 1559 1559 1559 1559 1561 1562 1563 1563 1564 1565 1566 1567 1568 1569 1570 1571 1571 1572 1573 1574 1575 1576 1576 1577
1569 1570 1570 1571 1572 1573 1574 1575 1575 1576 1577 1577 1578 1578 1577 1577 1576 1577 1577 1577 1577 1577 1577 1577 1577 1577 1577 1576 1576 1576 1576 1576 1575 1575 1575 1574 1573 1573 1572 1572 1571 1570 1570 1570 1568 1567 1567 1566 1566 1566 1566 1565 1565 1566 1566 1565 1564 1563 1562 1561 1561 1560 1559 1559 1559 1560 1561 1562 1563 1564 1565 1566 1566 1567 1568 1569 1570 1571 1571 1572 1573 1574 1574 1575 1576
1568 1569 1569 1570 1571 1572 1572 1574 1574 1575 1575 1575 1576 1576 1576 1576 1576 1576 1576 1575 1576 1576 1576 1577 1576 1576 1576 1576 1576 1576 1576 1575 1575 1574 1574 1574 1573 1573 1572 1572 1572 1571 1571 1570 1569 1568 1567 1567 1566 1566 1566 1565 1565 1566 1566 1565 1565 1564 1563 1562 1561 1560 1560 1559 1559 1560 1561 1562 1563 1563 1564 1565 1566 1567 1568 1568 1569 1570 1570 1571 1572 1573 1573 1574 1574
1567 1567 1568 1568 1569 1570 1570 1572 1573 1573 1573 1573 1574 1575 1575 1575 1575 1575 1575 1574 1574 1574 1575 1575 1576 1576 1576 1576 1576 1575 1575 1575 1574 1574 1573 1573 1573 1573 1572 1571 1571 1571 1571 1570 1568 1568 1567 1567 1567 1566 1566 1566 1566 1566 1566 1566 1565 1565 1564 1563 1562 1561 1560 1560 1560 1560 1561 1562 1563 1563 1564 1565 1565 1566 1567 1568 1568 1569 1569 1570 1571 1571 1572 1573 1573
1565 1566 1566 1567 1567 1568 1568 1569 1570 1570 1571 1571 1572 1572 1572 1573 1574 1574 1574 1573 1573 1573 1573 1574 1575 1575 1575 1575 1575 1575 1574 1574 1574 1573 1573 1573 1572 1572 1572 1571 1571 1570 1570 1569 1569 1569 1568 1567 1567 1566 1566 1566 1566 1567 1566 1566 1566 1565 1565 1564 1563 1562 1561 1561 1561 1561 1561 1562 1563 1563 1564 1564 1565 1566 1566 1567 1568 1568 1569 1569 1569 1570 1571 1571 1572
1563 1564 1565 1566 1566 1566 1566 1567 1568 1568 1568 1569 1569 1570 1570 1571 1572 1572 1572 1572 1572 1572 1572 1572 1573 1573 1574 1574 1574 1574 1574 1573 1573 1573 1572 1572 1572 1572 1572 1571 1571 1571 1570 1569 1569 1569 1568 1567 1567 1566 1566 1566 1566 1567 1566 1566 1566 1565 1565 1564 1564 1563 1562 1562 1561 1562 1562 1562 1563 1563 1564 1564 1565 1565 1566 1566 1567 1567 1568 1568 1568 1569 1569 1570 1570
1562 1562 1563 1563 1565 1565 1565 1565 1566 1566 1566 1567 1567 1568 1568 1568 1569 1570 1570 1570 1570 1570 1570 1571 1572 1572 1572 1573 1573 1573 1573 1572 1572 1572 1572 1572 1572 1572 1571 1571 1571 1571 1570 1569 1569 1569 1568 1568 1567 1566 1566 1566 1566 1566 1566 1565 1566 1566 1565 1565 1564 1564 1563 1563 1562 1562 1562 1563 1563 1563 1563 1564 1564 1565 1565 1566 1566 1566 1567 1567 1567 1568 1568 1568 1569
1559 1560 1561 1561 1562 1563 1564 1564 1564 1564 1565 1565 1566 1567 1567 1567 1567 1567 1568 1569 1569 1568 1569 1569 1570 1570 1571 1571 1571 1571 1572 1572 1572 1571 1571 1571 1571 1571 1570 1571 1571 1570 1570 1569 1569 1568 1568 1569 1568 1566 1566 1566 1566 1566 1565 1565 1566 1565 1565 1565 1565 1564 1564 1564 1563 1563 1563 1563 1563 1563 1564 1564 1564 1564 1565 1565 1565 1566 1566 1566 1566 1567 1567 1568 1568
1557 1557 1559 1559 1560 1561 1562 1563 1563 1563 1563 1563 1564 1565 1565 1565 1565 1565 1565 1566 1567 1567 1567 1568 1568 1568 1569 1570 1570 1570 1570 1570 1570 1570 1570 1570 1570 1570 1570 1570 1570 1569 1569 1569 1569 1568 1568 1568 1567 1566 1566 1566 1566 1566 1565 1565 1565 1565 1565 1565 1565 1564 1564 1564 1564 1564 1564 1564 1564 1564 1564 1564 1564 1564 1564 1564 1565 1565 1565 1565 1566 1566 1566 1567 1567
1554 1554 1555 1557 1558 1559 1560 1561 1561 1561 1561 1561 1562 1563 1562 1563 1563 1563 1563 1564 1564 1565 1565 1565 1566 1566 1567 1568 1568 1568 1569 1569 1569 1569 1569 1569 1569 1569 1569 1569 1569 1568 1568 1568 1568 1568 1567 1567 1566 1566 1565 1565 1565 1565 1565 1565 1564 1564 1565 1565 1565 1564 1564 1564 1564 1564 1564 1564 1564 1564 1564 1564 1564 1564 1564 1564 1564 1564 1564 1565 1565 1565 1565 1566 1566
1551 1552 1553 1553 1555 1557 1558 1558 1558 1559 1559 1559 1560 1560 1560 1561 1561 1561 1561 1561 1561 1562 1562 1563 1564 1564 1565 1565 1566 1566 1567 1567 1568 1568 1568 1568 1568 1568 1568 1568 1568 1567 1567 1567 1567 1567 1567 1566 1565 1565 1565 1564 1565 1565 1564 1564 1564 1564 1564 1564 1564 1564 1564 1564 1564 1564 1564 1564 1564 1564 1564 1564 1564 1564 1563 1563 1563 1563 1564 1564 1564 1564 1564 1565 1565
1548 1549 1550 1551 1552 1554 1556 1557 1557 1557 1557 1557 1557 1558 1558 1558 1559 1559 1560 1559 1559 1559 1560 1561 1562 1562 1563 1563 1563 1564 1565 1565 1566 1566 1566 1566 1566 1566 1567 1567 1566 1566 1566 1566 1566 1566 1566 1566 1564 1564 1564 1564 1564 1564 1564 1564 1564 1563 1564 1564 1563 1563 1563 1563 1563 1564 1564 1564 1564 1564 1563 1563 1563 1563 1563 1563 1563 1563 1563 1563 1563 1564 1564 1564 1564
1545 1546 1548 1549 1549 1551 1554 1555 1555 1555 1555 1555 1555 1556 1555 1555 1556 1556 1557 1557 1557 1557 1557 1558 1559 1560 1561 1561 1561 1562 1562 1563 1564 1564 1565 1565 1565 1565 1565 1565 1565 1565 1565 1564 1564 1564 1565 1564 1564 1563 1563 1563 1563 1563 1563 1563 1563 1563 1563 1563 1563 1563 1563 1563 1563 1563 1563 1563 1563 1563 1563 1563 1563 1563 1563 1563 1563 1563 1563 1563 1563 1563 1563 1563 1563
1543 1544 1546 1546 1547 1549 1552 1553 1553 1553 1552 1552 1553 1553 1553 1553 1553 1554 1554 1554 1554 1555 1555 1555 1556 1558 1558 1559 1559 1559 1560 1561 1561 1562 1563 1563 1563 1563 1563 1563 1563 1564 1563 1563 1563 1563 1563 1563 1563 1562 1562 1562 1562 1562 1562 1562 1562 1562 1562 1562 1562 1563 1563 1563 1563 1562 1562 1562 1562 1562 1562 1562 1562 1562 1562 1562 1562 1562 1562 1562 1562 1562 1562 1562 1562
1540 1542 1544 1545 1545 1547 1550 1550 1550 1551 1550 1550 1551 1551 1550 1551 1551 1551 1552 1552 1552 1552 1553 1553 1554 1555 1556 1557 1557 1557 1558 1559 1559 1560 1561 1561 1562 1562 1562 1562 1562 1562 1562 1562 1561 1562 1562 1562 1562 1562 1561 1561 1561 1561 1561 1561 1561 1561 1561 1562 1562 1562 1562 1562 1561 1561 1561 1561 1561 1561 1561 1561 1562 1561 1561 1561 1561 1562 1562 1561 1561 1561 1561 1562 1562
1538 1540 1542 1543 1543 1545 1547 1548 1548 1548 1548 1548 1549 1548 1548 1548 1549 1550 1550 1550 1550 1550 1551 1552 1552 1554 1554 1555 1555 1556 1556 1556 1557 1558 1558 1559 1559 1559 1560 1560 1560 1560 1561 1561 1560 1560 1561 1561 1561 1561 1561 1560 1560 1560 1560 1560 1560 1560 1561 1561 1561 1561 1560 1560 1560 1560 1560 1560 1560 1560 1561 1561 1561 1561 1561 1561 1561 1561 1561 1561 1561 1561 1561 1561 1561
1537 1539 1541 1542 1542 1543 1545 1546 1547 1547 1547 1547 1546 1547 1547 1547 1547 1548 1548 1549 1549 1549 1549 1550 1551 1552 1552 1553 1553 1553 1554 1554 1555 1555 1556 1556 1557 1557 1557 1558 1558 1558 1559 1559 1559 1558 1559 1559 1559 1560 1560 1559 1559 1559 1559 1559 1559 1559 1559 1560 1560 1559 1559 1558 1558 1558 1558 1559 1559 1559 1559 1560 1560 1560 1560 1560 1559 1559 1559 1559 1559 1560 1559 1560 1559
1536 1538 1540 1540 1540 1542 1543 1545 1546 1546 1546 1545 1545 1545 1545 1546 1546 1546 1547 1547 1548 1547 1548 1548 1549 1550 1550 1551 1551 1550 1551 1552 1553 1553 1553 1554 1554 1554 1555 1555 1555 1556 1556 1556 1557 1557 1557 1557 1558 1558 1558 1558 1558 1557 1557 1558 1558 1558 1558 1558 1558 1558 1557 1557 1557 1557 1557 1557 1558 1558 1558 1558 1558 1558 1558 1558 1558 1558 1558 1558 1558 1558 1558 1558 1558
1536 1537 1539 1539 1540 1541 1543 1544 1544 1544 1544 1544 1543 1543 1543 1544 1545 1545 1546 1546 1546 1546 1546 1546 1547 1547 1548 1548 1548 1548 1549 1550 1550 1551 1551 1551 1551 1551 1552 1552 1553 1553 1553 1554 1554 1555 1555 1555 1555 1556 1555 1556 1556 1556 1556 1556 1557 1557 1557 1557 1556 1556 1556 1555 1555 1555 1555 1556 1556 1557 1557 1557 1557 1557 1557 1556 1556 1556 1556 1556 1556 1557 1557 1557 1557
1535 1537 1537 1538 1539 1541 1542 1542 1543 1542 1542 1542 1542 1541 1541 1542 1543 1544 1544 1544 1545 1545 1545 1545 1545 1545 1545 1545 1546 1546 1547 1547 1547 1548 1549 1549 1549 1549 1549 1550 1550 1551 1551 1552 1552 1552 1552 1552 1553 1553 1553 1553 1554 1554 1554 1554 1555 1555 1555 1555 1555 1555 1554 1554 1554 1554 1554 1554 1555 1555 1555 1555 1555 1556 1555 1555 1555 1555 1555 1555 1555 1555 1555 1555 1555
1535 1536 1536 1537 1539 1540 1540 1540 1541 1541 1541 1541 1540 1540 1540 1540 1541 1542 1542 1542 1543 1543 1543 1543 1543 1544 1544 1543 1543 1544 1545 1545 1546 1546 1546 1546 1546 1546 1547 1547 1548 1548 1549 1550 1550 1550 1549 1549 1550 1551 1551 1551 1551 1551 1551 1552 1553 1553 1553 1554 1554 1554 1553 1553 1553 1553 1553 1553 1553 1553 1553 1553 1554 1554 1554 1554 1554 1554 1554 1554 1554 1554 1554 1554 1554
1534 1535 1536 1537 1538 1538 1539 1539 1539 1540 1540 1539 1538 1538 1539 1539 1539 1540 1540 1540 1540 1540 1540 1540 1541 1542 1542 1542 1541 1541 1542 1543 1544 1543 1543 1543 1543 1544 1544 1545 1546 1547 1548 1548 1548 1548 1547 1547 1547 1548 1548 1548 1548 1548 1549 1550 1551 1551 1551 1551 1552 1552 1552 1551 1551 1551 1551 1551 1551 1551 1551 1551 1552 1552 1552 1552 1552 1552 1553 1553 1553 1553 1553 1553 1553
1534 1535 1535 1536 1536 1537 1537 1538 1538 1539 1538 1536 1536 1537 1537 1537 1537 1538 1538 1538 1538 1537 1538 1537 1537 1539 1539 1540 1540 1540 1540 1540 1540 1539 1540 1541 1541 1542 1542 1542 1543 1544 1545 1545 1545 1546 1546 1545 1545 1546 1545 1545 1546 1547 1547 1548 1548 1549 1549 1549 1550 1550 1550 1549 1548 1548 1549 1549 1549 1548 1548 1549 1549 1549 1550 1550 1550 1551 1551 1551 1552 1552 1552 1552 1552
1533 1534 1534 1535 1535 1536 1536 1536 1537 1537 1535 1534 1535 1535 1535 1535 1536 1536 1537 1537 1536 1535 1535 1535 1535 1536 1536 1536 1536 1537 1537 1537 1537 1537 1538 1539 1539 1539 1539 1540 1541 1542 1543 1543 1543 1544 1544 1543 1543 1543 1544 1543 1544 1545 1546 1545 1545 1545 1546 1546 1546 1547 1546 1546 1546 1546 1546 1546 1546 1545 1545 1546 1547 1547 1547 1548 1548 1549 1549 1550 1550 1550 1550 1551 1551
1532 1532 1533 1533 1534 1534 1534 1534 1535 1534 1533 1532 1533 1533 1533 1533 1534 1534 1535 1535 1535 1534 1533 1533 1533 1534 1534 1534 1534 1534 1535 1534 1535 1536 1536 1536 1536 1536 1537 1538 1538 1539 1540 1540 1540 1541 1541 1541 1541 1542 1542 1542 1542 1543 1543 1543 1542 1543 1543 1543 1543 1543 1543 1542 1543 1544 1543 1544 1544 1543 1543 1544 1544 1545 1545 1546 1547 1547 1548 1548 1548 1548 1548 1549 1549
1530 1531 1531 1532 1532 1532 1532 1533 1533 1532 1531 1531 1531 1531 1531 1531 1532 1532 1533 1533 1533 1532 1532 1532 1532 1532 1532 1532 1532 1532 1533 1532 1533 1533 1533 1533 1534 1534 1534 1535 1535 1536 1536 1536 1537 1537 1538 1538 1538 1539 1540 1539 1540 1541 1541 1541 1540 1540 1540 1540 1540 1540 1540 1539 1541 1541 1540 1540 1541 1540 1540 1541 1541 1542 1543 1544 1544 1545 1545 1546 1546 1546 1547 1547 1548
1529 1529 1530 1530 1530 1530 1531 1531 1532 1531 1529 1529 1529 1529 1529 1529 1530 1531 1532 1532 1532 1531 1531 1531 1531 1530 1530 1529 1529 1530 1530 1530 1530 1531 1531 1531 1531 1531 1532 1532 1532 1532 1532 1532 1533 1533 1534 1535 1535 1536 1537 1536 1537 1539 1539 1538 1538 1537 1538 1537 1537 1537 1537 1538 1538 1538 1537 1537 1538 1537 1537 1538 1538 1539 1540 1541 1542 1542 1543 1543 1544 1544 1545 1546 1546
1527 1527 1528 1528 1528 1528 1529 1529 1530 1530 1527 1526 1527 1527 1526 1527 1528 1529 1530 1530 1530 1530 1530 1529 1529 1529 1528 1528 1528 1528 1528 1528 1528 1528 1528 1528 1529 1529 1529 1529 1529 1529 1529 1529 1529 1530 1531 1531 1532 1533 1533 1533 1534 1535 1535 1534 1534 1534 1534 1534 1534 1534 1535 1536 1536 1534 1533 1534 1534 1534 1534 1534 1535 1536 1537 1538 1539 1540 1540 1541 1542 1542 1543 1544 1545
1526 1526 1526 1526 1526 1526 1527 1527 1528 1528 1526 1524 1524 1524 1524 1525 1526 1526 1527 1527 1527 1527 1527 1527 1527 1527 1527 1526 1526 1526 1526 1526 1526 1526 1525 1525 1525 1526 1526 1527 1527 1526 1526 1526 1526 1527 1527 1527 1528 1530 1530 1530 1531 1531 1531 1531 1531 1530 1529 1529 1530 1531 1532 1533 1533 1531 1530 1530 1531 1531 1530 1530 1532 1534 1534 1535 1536 1537 1538 1539 1540 1541 1542 1543 1543
1525 1525 1525 1524 1524 1524 1525 1525 1526 1525 1523 1522 1522 1522 1521 1522 1523 1523 1524 1524 1524 1524 1524 1524 1524 1524 1524 1523 1523 1524 1524 1524 1524 1523 1523 1523 1523 1523 1523 1523 1523 1523 1523 1523 1523 1524 1524 1524 1525 1526 1527 1527 1527 1527 1527 1527 1527 1526 1525 1526 1528 1529 1528 1528 1528 1527 1526 1526 1527 1528 1527 1527 1529 1530 1530 1531 1533 1535 1537 1538 1539 1540 1541 1542 1543
1524 1524 1523 1523 1523 1523 1523 1522 1522 1523 1522 1520 1519 1519 1519 1519 1520 1520 1520 1520 1520 1521 1521 1521 1521 1521 1521 1520 1520 1520 1521 1521 1521 1521 1521 1521 1521 1521 1520 1520 1521 1521 1520 1520 1521 1521 1521 1521 1521 1521 1522 1523 1523 1523 1523 1523 1523 1522 1522 1524 1526 1526 1524 1524 1523 1523 1523 1524 1524 1525 1524 1524 1526 1526 1527 1529 1532 1534 1536 1537 1538 1539 1541 1542 1544